Location: Dumpton Point
(51.3500°N, 1.4433°E)
Time: 17:34:27
(UTC+00:00)

Vanguard 3 - Pass Details

Date: 26 April 2021
Orbit: 507 x 3262 km, 33.4° (Epoch: 16 May)

Event Time Altitude Azimuth Distance (km) Brightness Sun altitude
Rises 23:34:37 0° 227° (SW) 4,809 - -24.7°
Reaches altitude 10° 23:40:21 10° 204° (SSW) 3,157 - -24.8°
Maximum altitude 23:43:29 13° 180° (S) 2,576 - -24.8°
Drops below altitude 10° 23:46:05 10° 153° (SSE) 2,505 - -24.8°
Sets 23:49:34 0° 124° (SE) 3,078 - -24.8°
